This demonstration page uses our WeatherBlox Daily Observations layout. Learn more.

Hourly Observations for July 8, 2019

Temp ( °F °C ) Dew Point ( °F °C ) Humidity (%) Winds ( mph kmh ) Pressure ( in mb ) Visibility ( mi km ) Precip ( " mm )
12:15 am 00:15 Clear 69 20.8 68 20 95 95 SE 5 7 29.94 1014 10 16.09344 0 0
12:35 am 00:35 Clear 69 20.8 68 19.8 94 94 SSE 6 9 29.94 1014 10 16.09344 0 0
12:55 am 00:55 Clear 69 20.6 68 19.8 95 95 SSE 3 6 29.94 1014 10 16.09344 0 0
1:15 am 01:15 Clear 69 20.5 67 19.7 95 95 SSE 6 9 29.94 1014 10 16.09344 0 0
1:35 am 01:35 Partly Cloudy 69 20.7 68 19.8 95 95 SSE 6 9 29.94 1014 10 16.09344 0 0
1:55 am 01:55 Partly Cloudy 69 20.6 67 19.7 95 95 SSE 5 7 29.94 1014 10 16.09344 0 0
2:15 am 02:15 Clear 69 20.5 67 19.7 95 95 SSE 6 9 29.91 1013 10 16.09344 0 0
2:35 am 02:35 Clear 69 20.5 67 19.6 95 95 SSE 5 7 29.94 1014 10 16.09344 0 0
2:55 am 02:55 Clear 68 20.2 67 19.6 96 96 SSE 5 7 29.91 1013 10 16.09344 0 0
3:15 am 03:15 Clear 68 20.1 67 19.5 96 96 SSE 5 7 29.91 1013 10 16.09344 0 0
3:35 am 03:35 Clear 68 20.1 67 19.6 97 97 SSE 5 7 29.91 1013 10 16.09344 0 0
3:55 am 03:55 Clear 68 20 67 19.5 97 97 SSE 6 9 29.91 1013 10 16.09344 0 0
4:15 am 04:15 Partly Cloudy 68 20 67 19.6 98 98 SSE 5 7 29.91 1013 10 16.09344 0 0
4:35 am 04:35 Partly Cloudy 68 20 67 19.6 98 98 SSE 5 7 29.88 1012 10 16.09344 0 0
4:55 am 04:55 Partly Cloudy 68 19.9 67 19.6 98 98 SSE 5 7 29.88 1012 10 16.09344 0 0
5:15 am 05:15 Partly Cloudy 67 19.7 67 19.5 99 99 SSE 3 6 29.88 1012 10 16.09344 0 0
5:35 am 05:35 Clear 68 19.9 67 19.6 98 98 SSE 5 7 29.88 1012 10 16.09344 0 0
5:55 am 05:55 Clear 67 19.6 67 19.5 99 99 SSE 3 6 29.88 1012 10 16.09344 0 0
6:15 am 06:15 Sunny 67 19.7 67 19.6 99 99 SSE 5 7 29.88 1012 10 16.09344 0 0
6:35 am 06:35 Sunny 67 19.5 67 19.4 99 99 ESE 6 9 29.88 1012 10 16.09344 0 0
6:55 am 06:55 Sunny 67 19.6 67 19.6 100 100 ESE 5 7 29.88 1012 10 16.09344 0 0
7:15 am 07:15 Sunny 69 20.4 69 20.3 99 99 SE 8 13 29.88 1012 10 16.09344 0 0
7:35 am 07:35 Sunny 69 20.8 69 20.5 98 98 SE 7 11 29.88 1012 10 16.09344 0 0
7:55 am 07:55 Sunny 70 20.9 69 20.7 99 99 SE 8 13 29.88 1012 10 16.09344 0 0
8:15 am 08:15 Sunny 71 21.5 70 21.2 98 98 ESE 8 13 29.91 1013 10 16.09344 0 0
8:35 am 08:35 Sunny 72 22 70 21.3 96 96 SE 9 15 29.91 1013 10 16.09344 0 0
8:55 am 08:55 Partly Cloudy 72 22.2 71 21.5 96 96 SE 8 13 29.91 1013 10 16.09344 0 0
9:15 am 09:15 Partly Cloudy 73 22.5 71 21.5 94 94 SE 10 17 29.91 1013 10 16.09344 0 0
9:35 am 09:35 Sunny 73 22.5 71 21.5 94 94 SE 8 13 29.91 1013 10 16.09344 0 0
9:55 am 09:55 Sunny 73 23 72 22 94 94 SE 10 17 29.91 1013 10 16.09344 0 0
10:15 am 10:15 Sunny 75 24.1 72 22.3 90 90 SE 13 20 29.88 1012 10 16.09344 0 0
10:35 am 10:35 Sunny 77 25 72 22.1 84 84 SSE 12 19 29.85 1011 10 16.09344 0 0
10:55 am 10:55 Sunny 77 25 72 22 83 83 SSE 10 17 29.85 1011 10 16.09344 0 0
11:15 am 11:15 Sunny 77 25.2 72 22.4 85 85 SSE 12 19 29.85 1011 10 16.09344 0 0
11:35 am 11:35 Partly Cloudy 77 25.1 73 22.6 86 86 SE 12 19 29.85 1011 10 16.09344 0 0
11:55 am 11:55 Partly Cloudy 78 25.3 73 22.6 85 85 SSE 13 20 29.85 1011 10 16.09344 0 0
12:15 pm 12:15 Partly Cloudy 78 25.7 73 22.9 85 85 SSE 14 22 29.85 1011 10 16.09344 0 0
12:35 pm 12:35 Mostly Cloudy 80 26.4 74 23.2 83 83 SSE 12 19 29.85 1011 10 16.09344 0 0
12:55 pm 12:55 Mostly Cloudy 80 26.8 74 23.3 81 81 SSE 12 19 29.83 1010 10 16.09344 0 0
1:15 pm 13:15 Mostly Cloudy 81 27.2 73 23 78 78 SSE 12 19 29.83 1010 10 16.09344 0 0
1:35 pm 13:35 Mostly Cloudy 81 27 73 22.8 78 78 SSE 13 20 29.83 1010 10 16.09344 0 0
1:55 pm 13:55 Mostly Cloudy 81 27.1 73 22.8 77 77 SE 17 28 29.8 1009 10 16.09344 0 0
2:15 pm 14:15 Partly Cloudy 82 28 73 22.7 73 73 SE 17 28 29.8 1009 10 16.09344 0 0
2:35 pm 14:35 Partly Cloudy 83 28.3 72 22.3 70 70 SE 17 28 29.77 1008 10 16.09344 0 0
2:55 pm 14:55 Partly Cloudy 83 28.6 73 22.6 70 70 SE 17 28 29.77 1008 10 16.09344 0 0
3:15 pm 15:15 Cloudy with Heavy Thunderstorms 71 21.6 68 19.9 90 90 S 20 31 29.85 1011 1.5 2.414016 0.15 3.81
3:35 pm 15:35 Cloudy with Nearby Thunderstorms 71 21.9 71 21.9 100 100 SSE 5 7 29.83 1010 3 4.828032 0.38 9.652
3:55 pm 15:55 Cloudy with Nearby Thunderstorms 75 23.9 74 23.3 96 96 SSE 17 28 29.8 1009 10 16.09344 0.38 9.652
4:15 pm 16:15 Cloudy with Light Rain 72 22.1 69 20.6 91 91 SE 16 26 29.83 1010 5 8.04672 0.01 0.254
4:35 pm 16:35 Cloudy with Nearby Thunderstorms 76 24.4 71 21.7 85 85 ESE 16 26 29.77 1008 10 16.09344 0.01 0.254
4:55 pm 16:55 Cloudy with Nearby Thunderstorms 77 25.1 72 22.2 84 84 ESE 23 37 29.77 1008 10 16.09344 0.01 0.254
5:15 pm 17:15 Partly Cloudy 77 25 71 21.7 82 82 ESE 21 33 29.77 1008 10 16.09344 0 0
5:35 pm 17:35 Sunny with Nearby Thunderstorms 76 24.4 71 21.6 84 84 E 21 33 29.77 1008 10 16.09344 0 0
5:55 pm 17:55 Sunny with Nearby Thunderstorms 77 25.1 71 21.5 81 81 ESE 21 33 29.74 1007 10 16.09344 0 0
6:15 pm 18:15 Partly Cloudy 76 24.4 71 21.7 85 85 E 25 41 29.77 1008 10 16.09344 0 0
6:35 pm 18:35 Partly Cloudy with Nearby Thunderstorms 73 22.6 70 20.9 90 90 E 25 41 29.74 1007 10 16.09344 0 0
6:55 pm 18:55 Partly Cloudy 73 22.8 70 21.1 90 90 E 20 31 29.74 1007 10 16.09344 0 0
7:15 pm 19:15 Mostly Cloudy 73 22.5 70 21.1 92 92 ESE 20 31 29.77 1008 10 16.09344 0 0
7:35 pm 19:35 Cloudy with Heavy Rain 70 21.2 70 21.1 99 99 E 24 39 29.8 1009 3 4.828032 0.09 2.286
7:55 pm 19:55 Cloudy with Nearby Thunderstorms 70 21 70 21 100 100 E 16 26 29.8 1009 10 16.09344 0.09 2.286
8:15 pm 20:15 Cloudy 69 20.8 69 20.5 98 98 E 17 28 29.77 1008 10 16.09344 0 0
8:35 pm 20:35 Cloudy with Nearby Thunderstorms 69 20.7 69 20.4 98 98 WNW 14 22 29.8 1009 10 16.09344 0 0
8:55 pm 20:55 Cloudy with Heavy Thunderstorms 70 20.9 68 20 95 95 NNE 13 20 29.8 1009 4 6.437376 0.18 4.572
9:15 pm 21:15 Cloudy with Light Rain 68 20.1 68 20 99 99 NNE 24 39 29.74 1007 10 16.09344 0.02 0.508
9:35 pm 21:35 Cloudy with Thunderstorms 68 20.2 68 19.8 98 98 Calm 29.74 1007 10 16.09344 0.03 0.762
9:55 pm 21:55 Cloudy 68 20.2 68 19.8 98 98 NNW 17 28 29.77 1008 7 11.265408 0.09 2.286
10:15 pm 22:15 Cloudy with Light Thunderstorms 70 20.9 68 20.2 96 96 SSW 5 7 29.77 1008 10 16.09344 0.02 0.508
10:35 pm 22:35 Cloudy with Heavy Thunderstorms 71 21.6 69 20.8 95 95 NNE 10 17 29.74 1007 5 8.04672 0.1 2.54
10:55 pm 22:55 Cloudy with Heavy Thunderstorms 69 20.5 69 20.3 99 99 N 17 28 29.8 1009 1.25 2.01168 0.72 18.288
11:15 pm 23:15 Cloudy with Heavy Thunderstorms 67 19.3 67 19.3 100 100 NNW 21 33 29.77 1008 0.75 1.207008 0.78 19.812
11:35 pm 23:35 Cloudy with Heavy Thunderstorms 67 19.3 67 19.3 100 100 NNE 30 48 29.74 1007 0.25 0.402336 2.25 57.15
11:55 pm 23:55 Cloudy with Nearby Thunderstorms 66 19.1 66 19.1 100 100 NW 7 11 29.8 1009 10 16.09344 2.4 60.96

Powered by AerisWeather